ROD SEARCH UCC SEARCH
ROAM Help
 


David B. Hooten, County Clerk
Oklahoma County, Oklahoma
 
 Advanced Search
 What is Phonetic Search?
Sort By : 

We Recommend using All Info when you want to see all party and legal information.

We Recommend using Party Info when you want to see all party information, but not additional legal information.

We Recommend using Legal Info when you want to see all legal information, but not additional party information.

We Recommend using Document Info only when searching by Instrument Number, Book or Page. Running searches by these fields and using this filter will allow you to see 1 document per row.


Mode: PC|Mobile|Tablet
Results: All Info | Party Info | Legal Info | Document Info
1 2 3 4 5 6 7 8 9 10 of 18701 Go »

To view Plats, Click Here


ROD Results 1 - 30 of 561004 for . (0.02 seconds)

Filters Applied


Index Type

Doc Type

Party Role


Date Recorded

Party Seq

Legal Seq

RoleFilter

Instrument #Date RecordedNameParty RoleDoc TypeOther NameBookPageLegacy NumberFirst ReferenceLegal DescriptionBriefcaseView ImageView Full Screen
198007758509/15/1980 12:00:00 AMJ R SKAGGS CONSTRUCTION INCGranteePARTIAL RELEASE MORTGAGEFIDELITY BANK47009621980077585LOT:11 BLK:3 SUB:WALNUT RIDGE ESTATES
198007746609/15/1980 12:00:00 AMOKLAHOMA CITY MUNICIPAL COURTGrantorDISCHARGEBELL TERRY J47008041980077466LOT:11 BLK:28 SUB:PATTERSONS SOUTH HIGHLAND
198007683609/12/1980 12:00:00 AMGLYCKHERR GARY R ETUXGrantorMORTGAGELIBERTY MORTGAGE CO469917261980076836LOT:6 BLK:12 SUB:NORTHWOOD SECTION 3
198007707909/15/1980 12:00:00 AMCHURCH OF SAVOIRGranteeRELEASE OF MECHANICS LIENRED RIVER CONSTRUCTION CO INC47001891980077079LOT:46 BLK:8 SUB:QUEENS HIGHWAY
198007746609/15/1980 12:00:00 AMBELL TERRY JGranteeDISCHARGEOKLAHOMA CITY MUNICIPAL COURT47008041980077466LOT:11 BLK:28 SUB:PATTERSONS SOUTH HIGHLAND
198007758909/15/1980 12:00:00 AMSURPURE JAGANNATH S ETUXGrantorMORTGAGEMUTUAL FEDERAL SAVINGS & LOAN ASSN47009711980077589LOT:12 BLK:10 SUB:VAL GENES KELLY PARK 5
198007746709/15/1980 12:00:00 AMOKLAHOMA CITY MUNICIPAL COURTGrantorDISCHARGECHAPMAN SALLY J47008051980077467LOT:10 BLK:28 SUB:PATTERSONS SOUTH HIGHLAND
198007759409/15/1980 12:00:00 AMHALL RALPH E&TOMIGranteeTAX LIENINTERNAL REVENUE SERVICE47009821980077594
198007759609/15/1980 12:00:00 AMINTERNAL REVENUE SERVICEGrantorTAX LIENCASEY DELBERT GENE&ELEANOR JEAN47009841980077596
198007684509/12/1980 12:00:00 AMTRIANGLE ROYALTY CORPGrantorOIL & GAS LEASENILSEN CARL A469917411980076845SECT:11 TSHP:14N RANGE:2W Call1:1 Call3:NW4 Call4:SE4
198007684509/12/1980 12:00:00 AMNILSEN CARL AGranteeOIL & GAS LEASETRIANGLE ROYALTY CORP469917411980076845SECT:11 TSHP:14N RANGE:2W Call1:2 Call3:SW4 Call4:SE4
198007758309/15/1980 12:00:00 AMSCOTT LARRY DGranteeQUIT CLAIM DEEDSKAGGS JACK R47009601980077583LOT:11 BLK:3 SUB:WALNUT RIDGE ESTATES
198007684509/12/1980 12:00:00 AMTRIANGLE ROYALTY CORPGrantorOIL & GAS LEASENILSEN CARL A469917411980076845SECT:11 TSHP:14N RANGE:2W Call1:2 Call3:SW4 Call4:SE4
198007758309/15/1980 12:00:00 AMSKAGGS JACK RGrantorQUIT CLAIM DEEDSCOTT LARRY D47009601980077583LOT:11 BLK:3 SUB:WALNUT RIDGE ESTATES
198007758409/15/1980 12:00:00 AMFIRST NATIONAL BANKGrantorRELEASE OF MORTGAGECLOSE ROBERT E ETUX47009611980077584LOT:36 BLK:1 SUB:CITY VIEW
198007707909/15/1980 12:00:00 AMCHURCH OF SAVOIRGranteeRELEASE OF MECHANICS LIENRED RIVER CONSTRUCTION CO INC47001891980077079LOT:47 BLK:8 SUB:QUEENS HIGHWAY
198007685209/12/1980 12:00:00 AMTRIANGLE ROYALTY CORPGrantorOIL & GAS LEASENILSEN CARL A469917551980076852SECT:23 TSHP:13N RANGE:2W Call1:2 Call3:SE4 Call4:NE4
198007707909/15/1980 12:00:00 AMCHURCH OF SAVOIRGranteeRELEASE OF MECHANICS LIENRED RIVER CONSTRUCTION CO INC47001891980077079LOT:43 BLK:8 SUB:QUEENS HIGHWAY
198007685909/12/1980 12:00:00 AMNILSEN CARL AGranteeOIL & GAS LEASETRIANGLE ROYALTY CORP469917691980076859SECT:3 TSHP:13N RANGE:1E Call1:1 Call3:NW4 Call4:SE4
198007707909/15/1980 12:00:00 AMRED RIVER CONSTRUCTION CO INCGrantorRELEASE OF MECHANICS LIENCHURCH OF SAVOIR47001891980077079LOT:44 BLK:8 SUB:QUEENS HIGHWAY
198007707909/15/1980 12:00:00 AMCHURCH OF SAVOIRGranteeRELEASE OF MECHANICS LIENRED RIVER CONSTRUCTION CO INC47001891980077079LOT:48 BLK:8 SUB:QUEENS HIGHWAY
198007707909/15/1980 12:00:00 AMRED RIVER CONSTRUCTION CO INCGrantorRELEASE OF MECHANICS LIENCHURCH OF SAVOIR47001891980077079LOT:45 BLK:8 SUB:QUEENS HIGHWAY
198007758409/15/1980 12:00:00 AMFIRST NATIONAL BANKGrantorRELEASE OF MORTGAGECLOSE ROBERT E ETUX47009611980077584LOT:37 BLK:1 SUB:CITY VIEW
198007707909/15/1980 12:00:00 AMCHURCH OF SAVOIRGranteeRELEASE OF MECHANICS LIENRED RIVER CONSTRUCTION CO INC47001891980077079LOT:44 BLK:8 SUB:QUEENS HIGHWAY
198007758409/15/1980 12:00:00 AMCLOSE ROBERT E ETUXGranteeRELEASE OF MORTGAGEFIRST NATIONAL BANK47009611980077584LOT:36 BLK:1 SUB:CITY VIEW
198007758409/15/1980 12:00:00 AMCLOSE ROBERT E ETUXGranteeRELEASE OF MORTGAGEFIRST NATIONAL BANK47009611980077584LOT:37 BLK:1 SUB:CITY VIEW
198007757509/15/1980 12:00:00 AMFEDERAL NATIONAL MORTGAGE ASSNGrantorFINANCING STATEMENTTURNER CORP47009521980077575LOT:3 BLK:24 SUB:BEL AIR SEC 2 STONEGATE
198007758409/15/1980 12:00:00 AMFIRST NATIONAL BANKGrantorRELEASE OF MORTGAGECLOSE ROBERT E ETUX47009611980077584LOT:38 BLK:1 SUB:CITY VIEW
198007687709/12/1980 12:00:00 AMFOUNDERS BANK & TRUST COGranteeMORTGAGECOREY MERLE RAY ETAL469918011980076877LOT:13 BLK:1 SUB:MILAM HEIGHTS
198007687709/12/1980 12:00:00 AMCOREY MERLE RAY ETALGrantorMORTGAGEFOUNDERS BANK & TRUST CO469918011980076877LOT:13 BLK:1 SUB:MILAM HEIGHTS

Clicking on the Columns below will only sort the current page.

1 2 3 4 5 6 7 8 9 10 of 18701 Go »


Copyright © Granicus, INC.
Results per page :